Location: Squirrel Cove
(50.1074°N, 124.9139°W)
Time: 03:17:43
(UTC-07:00)

JY1SAT - Visible Passes

Search period start: 22 May 2022 00:00
Search period end: 01 June 2022 00:00
Orbit: 566 x 586 km, 97.6° (Epoch: 21 May)

Date Brightness Start Highest point End Pass type
(mag) Time Alt. Az. Time Alt. Az. Time Alt. Az.
22 May ? 22:00:46 10° SE 22:04:29 37° ENE 22:08:16 10° N visible
22 May ? 23:36:50 12° SW 23:39:52 24° W 23:43:14 10° NW visible
23 May ? 22:04:27 10° SE 22:08:15 40° ENE 22:12:05 10° N visible
23 May ? 23:40:36 11° SW 23:43:41 22° W 23:46:55 10° NW visible
24 May ? 22:08:09 10° SE 22:12:00 43° ENE 22:15:54 10° N visible
24 May ? 23:44:23 10° SW 23:47:28 21° W 23:50:36 10° NW visible
25 May ? 22:11:51 10° SE 22:15:45 47° ENE 22:19:42 10° N visible
25 May ? 23:48:20 10° SW 23:51:16 19° W 23:54:14 10° NW visible
26 May ? 22:15:35 10° SSE 22:19:28 52° ENE 22:23:29 10° N visible
26 May ? 23:52:17 10° SW 23:55:03 18° W 23:57:52 10° NW visible
27 May ? 22:19:18 11° SSE 22:23:12 57° ENE 22:27:15 10° N visible
27 May ? 23:56:15 10° SW 23:58:50 16° W 00:01:27 10° NW visible
28 May ? 22:23:01 11° SSE 22:26:55 62° ENE 22:30:59 10° N visible
29 May ? 00:00:13 10° SW 00:02:36 15° W 00:05:00 10° NW visible
29 May ? 22:26:43 11° SSE 22:30:37 68° ENE 22:34:43 10° N visible
30 May ? 00:04:14 10° WSW 00:06:21 14° W 00:08:30 10° WNW visible
30 May ? 22:30:25 11° SSE 22:34:19 74° ENE 22:38:26 10° N visible
31 May ? 00:08:16 10° WSW 00:10:06 13° W 00:11:57 10° WNW visible
31 May ? 22:34:06 11° SSE 22:38:00 81° ENE 22:42:08 10° NNW visible
